Year,Month,Day,Hour,Minute,Value (Times are PST for temperature in C)
2017,09,04,00,00,21.90
2017,09,04,00,01,21.90
2017,09,04,00,02,21.80
2017,09,04,00,03,21.80
2017,09,04,00,04,21.80
2017,09,04,00,05,21.80
2017,09,04,00,06,21.70
2017,09,04,00,07,21.70
2017,09,04,00,08,21.70
2017,09,04,00,09,21.70
2017,09,04,00,10,21.70
2017,09,04,00,11,21.70
2017,09,04,00,12,21.70
2017,09,04,00,13,21.70
2017,09,04,00,14,21.60
2017,09,04,00,15,21.60
2017,09,04,00,16,21.60
2017,09,04,00,17,21.60
2017,09,04,00,18,21.60
2017,09,04,00,19,21.50
2017,09,04,00,20,21.50
2017,09,04,00,21,21.40
2017,09,04,00,22,21.40
2017,09,04,00,23,21.40
2017,09,04,00,24,21.30
2017,09,04,00,25,21.30
2017,09,04,00,26,21.30
2017,09,04,00,27,21.20
2017,09,04,00,28,21.20
2017,09,04,00,29,21.20
2017,09,04,00,30,21.20
2017,09,04,00,31,21.10
2017,09,04,00,32,21.10
2017,09,04,00,33,21.10
2017,09,04,00,34,21.10
2017,09,04,00,35,21.10
2017,09,04,00,36,21.10
2017,09,04,00,37,21.10
2017,09,04,00,38,21.10
2017,09,04,00,39,21.10
2017,09,04,00,40,21.10
2017,09,04,00,41,21.10
2017,09,04,00,42,21.10
2017,09,04,00,43,21.10
2017,09,04,00,44,21.10
2017,09,04,00,45,21.10
2017,09,04,00,46,21.20
2017,09,04,00,47,21.20
2017,09,04,00,48,21.20
2017,09,04,00,49,21.20
2017,09,04,00,50,21.20
2017,09,04,00,51,21.20
2017,09,04,00,52,21.20
2017,09,04,00,53,21.20
2017,09,04,00,54,21.20
2017,09,04,00,55,21.20
2017,09,04,00,56,21.20
2017,09,04,00,57,21.30
2017,09,04,00,58,21.30
2017,09,04,00,59,21.30
2017,09,04,01,00,21.30
2017,09,04,01,01,21.20
2017,09,04,01,02,21.20
2017,09,04,01,03,21.20
2017,09,04,01,04,21.20
2017,09,04,01,05,21.20
2017,09,04,01,06,21.20
2017,09,04,01,07,21.20
2017,09,04,01,08,21.20
2017,09,04,01,09,21.20
2017,09,04,01,10,21.20
2017,09,04,01,11,21.20
2017,09,04,01,12,21.20
2017,09,04,01,13,21.20
2017,09,04,01,14,21.10
2017,09,04,01,15,21.10
2017,09,04,01,16,21.10
2017,09,04,01,17,21.10
2017,09,04,01,18,21.20
2017,09,04,01,19,21.20
2017,09,04,01,20,21.20
2017,09,04,01,21,21.20
2017,09,04,01,22,21.20
2017,09,04,01,23,21.20
2017,09,04,01,24,21.10
2017,09,04,01,25,21.10
2017,09,04,01,26,21.10
2017,09,04,01,27,21.10
2017,09,04,01,28,21.10
2017,09,04,01,29,21.10
2017,09,04,01,30,21.00
2017,09,04,01,31,21.00
2017,09,04,01,32,21.00
2017,09,04,01,33,21.00
2017,09,04,01,34,20.90
2017,09,04,01,35,20.90
2017,09,04,01,36,20.90
2017,09,04,01,37,20.90
2017,09,04,01,38,20.90
2017,09,04,01,39,20.90
2017,09,04,01,40,20.90
2017,09,04,01,41,20.90
2017,09,04,01,42,20.90
2017,09,04,01,43,20.90
2017,09,04,01,44,20.90
2017,09,04,01,45,20.90
2017,09,04,01,46,20.90
2017,09,04,01,47,20.90
2017,09,04,01,48,20.80
2017,09,04,01,49,20.80
2017,09,04,01,50,20.80
2017,09,04,01,51,20.90
2017,09,04,01,52,20.90
2017,09,04,01,53,20.90
2017,09,04,01,54,20.90
2017,09,04,01,55,20.90
2017,09,04,01,56,20.90
2017,09,04,01,57,20.90
2017,09,04,01,58,21.00
2017,09,04,01,59,21.00
2017,09,04,02,00,21.00
2017,09,04,02,01,21.10
2017,09,04,02,02,21.10
2017,09,04,02,03,21.10
2017,09,04,02,04,21.10
2017,09,04,02,05,21.10
2017,09,04,02,06,21.10
2017,09,04,02,07,21.10
2017,09,04,02,08,21.10
2017,09,04,02,09,21.10
2017,09,04,02,10,21.10
2017,09,04,02,11,21.10
2017,09,04,02,12,21.10
2017,09,04,02,13,21.10
2017,09,04,02,14,21.10
2017,09,04,02,15,21.10
2017,09,04,02,16,21.00
2017,09,04,02,17,21.00
2017,09,04,02,18,21.00
2017,09,04,02,19,20.90
2017,09,04,02,20,20.90
2017,09,04,02,21,20.90
2017,09,04,02,22,20.90
2017,09,04,02,23,20.90
2017,09,04,02,24,20.90
2017,09,04,02,25,20.80
2017,09,04,02,26,20.80
2017,09,04,02,27,20.80
2017,09,04,02,28,20.80
2017,09,04,02,29,20.80
2017,09,04,02,30,20.80
2017,09,04,02,31,20.80
2017,09,04,02,32,20.70
2017,09,04,02,33,20.70
2017,09,04,02,34,20.70
2017,09,04,02,35,20.60
2017,09,04,02,36,20.60
2017,09,04,02,37,20.60
2017,09,04,02,38,20.50
2017,09,04,02,39,20.50
2017,09,04,02,40,20.40
2017,09,04,02,41,20.40
2017,09,04,02,42,20.40
2017,09,04,02,43,20.30
2017,09,04,02,44,20.30
2017,09,04,02,45,20.30
2017,09,04,02,46,20.30
2017,09,04,02,47,20.30
2017,09,04,02,48,20.30
2017,09,04,02,49,20.30
2017,09,04,02,50,20.30
2017,09,04,02,51,20.30
2017,09,04,02,52,20.30
2017,09,04,02,53,20.30
2017,09,04,02,54,20.30
2017,09,04,02,55,20.30
2017,09,04,02,56,20.30
2017,09,04,02,57,20.30
2017,09,04,02,58,20.30
2017,09,04,02,59,20.30
2017,09,04,03,00,20.30
2017,09,04,03,01,20.30
2017,09,04,03,02,20.30
2017,09,04,03,03,20.30
2017,09,04,03,04,20.30
2017,09,04,03,05,20.30
2017,09,04,03,06,20.30
2017,09,04,03,07,20.30
2017,09,04,03,08,20.40
2017,09,04,03,09,20.40
2017,09,04,03,10,20.40
2017,09,04,03,11,20.40
2017,09,04,03,12,20.40
2017,09,04,03,13,20.30
2017,09,04,03,14,20.30
2017,09,04,03,15,20.30
2017,09,04,03,16,20.30
2017,09,04,03,17,20.30
2017,09,04,03,18,20.30
2017,09,04,03,19,20.30
2017,09,04,03,20,20.30
2017,09,04,03,21,20.30
2017,09,04,03,22,20.30
2017,09,04,03,23,20.30
2017,09,04,03,24,20.30
2017,09,04,03,25,20.30
2017,09,04,03,26,20.30
2017,09,04,03,27,20.30
2017,09,04,03,28,20.30
2017,09,04,03,29,20.30
2017,09,04,03,30,20.30
2017,09,04,03,31,20.30
2017,09,04,03,32,20.20
2017,09,04,03,33,20.20
2017,09,04,03,34,20.20
2017,09,04,03,35,20.20
2017,09,04,03,36,20.20
2017,09,04,03,37,20.20
2017,09,04,03,38,20.10
2017,09,04,03,39,20.10
2017,09,04,03,40,20.10
2017,09,04,03,41,20.10
2017,09,04,03,42,20.00
2017,09,04,03,43,20.00
2017,09,04,03,44,20.00
2017,09,04,03,45,19.90
2017,09,04,03,46,19.90
2017,09,04,03,47,19.90
2017,09,04,03,48,19.90
2017,09,04,03,49,19.90
2017,09,04,03,50,19.90
2017,09,04,03,51,19.80
2017,09,04,03,52,19.80
2017,09,04,03,53,19.80
2017,09,04,03,54,19.80
2017,09,04,03,55,19.70
2017,09,04,03,56,19.70
2017,09,04,03,57,19.70
2017,09,04,03,58,19.70
2017,09,04,03,59,19.70
2017,09,04,04,00,19.70
2017,09,04,04,01,19.70
2017,09,04,04,02,19.70
2017,09,04,04,03,19.70
2017,09,04,04,04,19.70
2017,09,04,04,05,19.60
2017,09,04,04,06,19.60
2017,09,04,04,07,19.60
2017,09,04,04,08,19.60
2017,09,04,04,09,19.60
2017,09,04,04,10,19.70
2017,09,04,04,11,19.70
2017,09,04,04,12,19.70
2017,09,04,04,13,19.70
2017,09,04,04,14,19.70
2017,09,04,04,15,19.70
2017,09,04,04,16,19.80
2017,09,04,04,17,19.80
2017,09,04,04,18,19.80
2017,09,04,04,19,19.80
2017,09,04,04,20,19.80
2017,09,04,04,21,19.80
2017,09,04,04,22,19.80
2017,09,04,04,23,19.80
2017,09,04,04,24,19.80
2017,09,04,04,25,19.80
2017,09,04,04,26,19.80
2017,09,04,04,27,19.80
2017,09,04,04,28,19.80
2017,09,04,04,29,19.80
2017,09,04,04,30,19.80
2017,09,04,04,31,19.80
2017,09,04,04,32,19.80
2017,09,04,04,33,19.80
2017,09,04,04,34,19.80
2017,09,04,04,35,19.80
2017,09,04,04,36,19.70
2017,09,04,04,37,19.70
2017,09,04,04,38,19.70
2017,09,04,04,39,19.70
2017,09,04,04,40,19.80
2017,09,04,04,41,19.80
2017,09,04,04,42,19.80
2017,09,04,04,43,19.90
2017,09,04,04,44,19.90
2017,09,04,04,45,20.00
2017,09,04,04,46,20.00
2017,09,04,04,47,20.10
2017,09,04,04,48,20.10
2017,09,04,04,49,20.10
2017,09,04,04,50,20.10
2017,09,04,04,51,20.10
2017,09,04,04,52,20.10
2017,09,04,04,53,20.10
2017,09,04,04,54,20.10
2017,09,04,04,55,20.00
2017,09,04,04,56,20.00
2017,09,04,04,57,20.00
2017,09,04,04,58,20.00
2017,09,04,04,59,20.00
2017,09,04,05,00,20.00
2017,09,04,05,01,19.90
2017,09,04,05,02,19.90
2017,09,04,05,03,19.90
2017,09,04,05,04,19.90
2017,09,04,05,05,19.90
2017,09,04,05,06,19.90
2017,09,04,05,07,19.90
2017,09,04,05,08,19.90
2017,09,04,05,09,19.90
2017,09,04,05,10,19.90
2017,09,04,05,11,19.90
2017,09,04,05,12,19.90
2017,09,04,05,13,19.90
2017,09,04,05,14,19.90
2017,09,04,05,15,19.90
2017,09,04,05,16,19.80
2017,09,04,05,17,19.80
2017,09,04,05,18,19.80
2017,09,04,05,19,19.80
2017,09,04,05,20,19.80
2017,09,04,05,21,19.70
2017,09,04,05,22,19.70
2017,09,04,05,23,19.70
2017,09,04,05,24,19.70
2017,09,04,05,25,19.70
2017,09,04,05,26,19.60
2017,09,04,05,27,19.60
2017,09,04,05,28,19.60
2017,09,04,05,29,19.60
2017,09,04,05,30,19.50
2017,09,04,05,31,19.50
2017,09,04,05,32,19.50
2017,09,04,05,33,19.50
2017,09,04,05,34,19.40
2017,09,04,05,35,19.40
2017,09,04,05,36,19.40
2017,09,04,05,37,19.40
2017,09,04,05,38,19.40
2017,09,04,05,39,19.40
2017,09,04,05,40,19.40
2017,09,04,05,41,19.30
2017,09,04,05,42,19.30
2017,09,04,05,43,19.30
2017,09,04,05,44,19.30
2017,09,04,05,45,19.30
2017,09,04,05,46,19.30
2017,09,04,05,47,19.30
2017,09,04,05,48,19.30
2017,09,04,05,49,19.30
2017,09,04,05,50,19.30
2017,09,04,05,51,19.20
2017,09,04,05,52,19.20
2017,09,04,05,53,19.20
2017,09,04,05,54,19.20
2017,09,04,05,55,19.20
2017,09,04,05,56,19.20
2017,09,04,05,57,19.20
2017,09,04,05,58,19.20
2017,09,04,05,59,19.20
2017,09,04,06,00,19.20
2017,09,04,06,01,19.20
2017,09,04,06,02,19.20
2017,09,04,06,03,19.20
2017,09,04,06,04,19.20
2017,09,04,06,05,19.20
2017,09,04,06,06,19.20
2017,09,04,06,07,19.20
2017,09,04,06,08,19.10
2017,09,04,06,09,19.10
2017,09,04,06,10,19.10
2017,09,04,06,11,19.10
2017,09,04,06,12,19.00
2017,09,04,06,13,19.00
2017,09,04,06,14,19.00
2017,09,04,06,15,18.90
2017,09,04,06,16,18.90
2017,09,04,06,17,18.90
2017,09,04,06,18,18.90
2017,09,04,06,19,18.80
2017,09,04,06,20,18.80
2017,09,04,06,21,18.80
2017,09,04,06,22,18.80
2017,09,04,06,23,18.80
2017,09,04,06,24,18.80
2017,09,04,06,25,18.80
2017,09,04,06,26,18.80
2017,09,04,06,27,18.70
2017,09,04,06,28,18.70
2017,09,04,06,29,18.70
2017,09,04,06,30,18.70
2017,09,04,06,31,18.70
2017,09,04,06,32,18.60
2017,09,04,06,33,18.60
2017,09,04,06,34,18.60
2017,09,04,06,35,18.60
2017,09,04,06,36,18.60
2017,09,04,06,37,18.50
2017,09,04,06,38,18.50
2017,09,04,06,39,18.50
2017,09,04,06,40,18.50
2017,09,04,06,41,18.50
2017,09,04,06,42,18.50
2017,09,04,06,43,18.50
2017,09,04,06,44,18.50
2017,09,04,06,45,18.50
2017,09,04,06,46,18.50
2017,09,04,06,47,18.50
2017,09,04,06,48,18.40
2017,09,04,06,49,18.40
2017,09,04,06,50,18.40
2017,09,04,06,51,18.40
2017,09,04,06,52,18.40
2017,09,04,06,53,18.40
2017,09,04,06,54,18.40
2017,09,04,06,55,18.40
2017,09,04,06,56,18.40
2017,09,04,06,57,18.40
2017,09,04,06,58,18.40
2017,09,04,06,59,18.40
2017,09,04,07,00,18.40
2017,09,04,07,01,18.40
2017,09,04,07,02,18.40
2017,09,04,07,03,18.40
2017,09,04,07,04,18.40
2017,09,04,07,05,18.40
2017,09,04,07,06,18.40
2017,09,04,07,07,18.40
2017,09,04,07,08,18.40
2017,09,04,07,09,18.50
2017,09,04,07,10,18.50
2017,09,04,07,11,18.50
2017,09,04,07,12,18.50
2017,09,04,07,13,18.50
2017,09,04,07,14,18.60
2017,09,04,07,15,18.60
2017,09,04,07,16,18.60
2017,09,04,07,17,18.70
2017,09,04,07,18,18.70
2017,09,04,07,19,18.70
2017,09,04,07,20,18.70
2017,09,04,07,21,18.70
2017,09,04,07,22,18.70
2017,09,04,07,23,18.70
2017,09,04,07,24,18.70
2017,09,04,07,25,18.70
2017,09,04,07,26,18.70
2017,09,04,07,27,18.70
2017,09,04,07,28,18.70
2017,09,04,07,29,18.70
2017,09,04,07,30,18.70
2017,09,04,07,31,18.70
2017,09,04,07,32,18.70
2017,09,04,07,33,18.70
2017,09,04,07,34,18.70
2017,09,04,07,35,18.70
2017,09,04,07,36,18.70
2017,09,04,07,37,18.70
2017,09,04,07,38,18.70
2017,09,04,07,39,18.70
2017,09,04,07,40,18.70
2017,09,04,07,41,18.70
2017,09,04,07,42,18.70
2017,09,04,07,43,18.70
2017,09,04,07,44,18.70
2017,09,04,07,45,18.70
2017,09,04,07,46,18.70
2017,09,04,07,47,18.70
2017,09,04,07,48,18.70
2017,09,04,07,49,18.70
2017,09,04,07,50,18.70
2017,09,04,07,51,18.80
2017,09,04,07,52,18.80
2017,09,04,07,53,18.80
2017,09,04,07,54,18.80
2017,09,04,07,55,18.80
2017,09,04,07,56,18.80
2017,09,04,07,57,18.90
2017,09,04,07,58,18.90
2017,09,04,07,59,18.90
2017,09,04,08,00,19.00
2017,09,04,08,01,19.00
2017,09,04,08,02,19.10
2017,09,04,08,03,19.10
2017,09,04,08,04,19.10
2017,09,04,08,05,19.20
2017,09,04,08,06,19.20
2017,09,04,08,07,19.20
2017,09,04,08,08,19.30
2017,09,04,08,09,19.30
2017,09,04,08,10,19.30
2017,09,04,08,11,19.40
2017,09,04,08,12,19.40
2017,09,04,08,13,19.40
2017,09,04,08,14,19.50
2017,09,04,08,15,19.50
2017,09,04,08,16,19.60
2017,09,04,08,17,19.70
2017,09,04,08,18,19.70
2017,09,04,08,19,19.80
2017,09,04,08,20,19.80
2017,09,04,08,21,19.80
2017,09,04,08,22,19.80
2017,09,04,08,23,19.80
2017,09,04,08,24,19.80
2017,09,04,08,25,19.80
2017,09,04,08,26,19.70
2017,09,04,08,27,19.70
2017,09,04,08,28,19.70
2017,09,04,08,29,19.70
2017,09,04,08,30,19.70
2017,09,04,08,31,19.70
2017,09,04,08,32,19.70
2017,09,04,08,33,19.70
2017,09,04,08,34,19.70
2017,09,04,08,35,19.80
2017,09,04,08,36,19.80
2017,09,04,08,37,19.80
2017,09,04,08,38,19.80
2017,09,04,08,39,19.80
2017,09,04,08,40,19.80
2017,09,04,08,41,19.90
2017,09,04,08,42,19.90
2017,09,04,08,43,19.90
2017,09,04,08,44,19.90
2017,09,04,08,45,20.00
2017,09,04,08,46,20.00
2017,09,04,08,47,20.10
2017,09,04,08,48,20.10
2017,09,04,08,49,20.20
2017,09,04,08,50,20.20
2017,09,04,08,51,20.30
2017,09,04,08,52,20.30
2017,09,04,08,53,20.30
2017,09,04,08,54,20.40
2017,09,04,08,55,20.40
2017,09,04,08,56,20.50
2017,09,04,08,57,20.50
2017,09,04,08,58,20.60
2017,09,04,08,59,20.70
2017,09,04,09,00,20.80
2017,09,04,09,01,20.80
2017,09,04,09,02,20.90
2017,09,04,09,03,21.00
2017,09,04,09,04,21.00
2017,09,04,09,05,21.10
2017,09,04,09,06,21.20
2017,09,04,09,07,21.20
2017,09,04,09,08,21.20
2017,09,04,09,09,21.20
2017,09,04,09,10,21.20
2017,09,04,09,11,21.30
2017,09,04,09,12,21.30
2017,09,04,09,13,21.20
2017,09,04,09,14,21.20
2017,09,04,09,15,21.20
2017,09,04,09,16,21.20
2017,09,04,09,17,21.20
2017,09,04,09,18,21.20
2017,09,04,09,19,21.20
2017,09,04,09,20,21.20
2017,09,04,09,21,21.20
2017,09,04,09,22,21.20
2017,09,04,09,23,21.30
2017,09,04,09,24,21.30
2017,09,04,09,25,21.30
2017,09,04,09,26,21.30
2017,09,04,09,27,21.30
2017,09,04,09,28,21.30
2017,09,04,09,29,21.40
2017,09,04,09,30,21.40
2017,09,04,09,31,21.40
2017,09,04,09,32,21.50
2017,09,04,09,33,21.50
2017,09,04,09,34,21.50
2017,09,04,09,35,21.50
2017,09,04,09,36,21.50
2017,09,04,09,37,21.40
2017,09,04,09,38,21.40
2017,09,04,09,39,21.40
2017,09,04,09,40,21.40
2017,09,04,09,41,21.40
2017,09,04,09,42,21.40
2017,09,04,09,43,21.40
2017,09,04,09,44,21.40
2017,09,04,09,45,21.50
2017,09,04,09,46,21.50
2017,09,04,09,47,21.50
2017,09,04,09,48,21.60
2017,09,04,09,49,21.60
2017,09,04,09,50,21.70
2017,09,04,09,51,21.80
2017,09,04,09,52,21.80
2017,09,04,09,53,21.80
2017,09,04,09,54,21.70
2017,09,04,09,55,21.70
2017,09,04,09,56,21.80
2017,09,04,09,57,21.80
2017,09,04,09,58,21.90
2017,09,04,09,59,21.90
2017,09,04,10,00,21.90
2017,09,04,10,01,21.90
2017,09,04,10,02,21.90
2017,09,04,10,03,21.90
2017,09,04,10,04,21.90
2017,09,04,10,05,21.90
2017,09,04,10,06,21.90
2017,09,04,10,07,21.90
2017,09,04,10,08,21.90
2017,09,04,10,09,21.90
2017,09,04,10,10,21.90
2017,09,04,10,11,21.90
2017,09,04,10,12,21.90
2017,09,04,10,13,21.90
2017,09,04,10,14,21.90
2017,09,04,10,15,22.00
2017,09,04,10,16,22.10
2017,09,04,10,17,22.10
2017,09,04,10,18,22.20
2017,09,04,10,19,22.20
2017,09,04,10,20,22.30
2017,09,04,10,21,22.30
2017,09,04,10,22,22.40
2017,09,04,10,23,22.50
2017,09,04,10,24,22.60
2017,09,04,10,25,22.70
2017,09,04,10,26,22.80
2017,09,04,10,27,22.90
2017,09,04,10,28,23.00
2017,09,04,10,29,23.10
2017,09,04,10,30,23.10
2017,09,04,10,31,23.20
2017,09,04,10,32,23.30
2017,09,04,10,33,23.30
2017,09,04,10,34,23.40
2017,09,04,10,35,23.50
2017,09,04,10,36,23.50
2017,09,04,10,37,23.50
2017,09,04,10,38,23.50
2017,09,04,10,39,23.50
2017,09,04,10,40,23.60
2017,09,04,10,41,23.60
2017,09,04,10,42,23.70
2017,09,04,10,43,23.70
2017,09,04,10,44,23.80
2017,09,04,10,45,23.80
2017,09,04,10,46,23.90
2017,09,04,10,47,23.90
2017,09,04,10,48,23.90
2017,09,04,10,49,24.00
2017,09,04,10,50,24.00
2017,09,04,10,51,24.10
2017,09,04,10,52,24.10
2017,09,04,10,53,24.20
2017,09,04,10,54,24.20
2017,09,04,10,55,24.30
2017,09,04,10,56,24.30
2017,09,04,10,57,24.30
2017,09,04,10,58,24.40
2017,09,04,10,59,24.40
2017,09,04,11,00,24.40
2017,09,04,11,01,24.50
2017,09,04,11,02,24.50
2017,09,04,11,03,24.60
2017,09,04,11,04,24.60
2017,09,04,11,05,24.70
2017,09,04,11,06,24.80
2017,09,04,11,07,24.90
2017,09,04,11,08,25.00
2017,09,04,11,09,25.10
2017,09,04,11,10,25.20
2017,09,04,11,11,25.30
2017,09,04,11,12,25.30
2017,09,04,11,13,25.30
2017,09,04,11,14,25.30
2017,09,04,11,15,25.30
2017,09,04,11,16,25.30
2017,09,04,11,17,25.30
2017,09,04,11,18,25.40
2017,09,04,11,19,25.50
2017,09,04,11,20,25.60
2017,09,04,11,21,25.70
2017,09,04,11,22,25.80
2017,09,04,11,23,25.80
2017,09,04,11,24,25.80
2017,09,04,11,25,25.70
2017,09,04,11,26,25.70
2017,09,04,11,27,25.70
2017,09,04,11,28,25.70
2017,09,04,11,29,25.60
2017,09,04,11,30,25.70
2017,09,04,11,31,25.70
2017,09,04,11,32,25.70
2017,09,04,11,33,25.80
2017,09,04,11,34,25.80
2017,09,04,11,35,25.80
2017,09,04,11,36,25.80
2017,09,04,11,37,25.80
2017,09,04,11,38,25.80
2017,09,04,11,39,25.80
2017,09,04,11,40,25.90
2017,09,04,11,41,26.00
2017,09,04,11,42,26.00
2017,09,04,11,43,26.10
2017,09,04,11,44,26.20
2017,09,04,11,45,26.20
2017,09,04,11,46,26.30
2017,09,04,11,47,26.30
2017,09,04,11,48,26.40
2017,09,04,11,49,26.40
2017,09,04,11,50,26.40
2017,09,04,11,51,26.40
2017,09,04,11,52,26.50
2017,09,04,11,53,26.50
2017,09,04,11,54,26.60
2017,09,04,11,55,26.60
2017,09,04,11,56,26.60
2017,09,04,11,57,26.60
2017,09,04,11,58,26.60
2017,09,04,11,59,26.60
2017,09,04,12,00,26.50
2017,09,04,12,01,26.50
2017,09,04,12,02,26.40
2017,09,04,12,03,26.40
2017,09,04,12,04,26.40
2017,09,04,12,05,26.40
2017,09,04,12,06,26.30
2017,09,04,12,07,26.30
2017,09,04,12,08,26.30
2017,09,04,12,09,26.30
2017,09,04,12,10,26.30
2017,09,04,12,11,26.10
2017,09,04,12,12,26.00
2017,09,04,12,13,25.90
2017,09,04,12,14,25.80
2017,09,04,12,15,25.70
2017,09,04,12,16,25.60
2017,09,04,12,17,25.60
2017,09,04,12,18,25.50
2017,09,04,12,19,25.60
2017,09,04,12,20,25.60
2017,09,04,12,21,25.60
2017,09,04,12,22,25.70
2017,09,04,12,23,25.70
2017,09,04,12,24,25.80
2017,09,04,12,25,25.80
2017,09,04,12,26,25.90
2017,09,04,12,27,26.00
2017,09,04,12,28,26.00
2017,09,04,12,29,26.10
2017,09,04,12,30,26.20
2017,09,04,12,31,26.30
2017,09,04,12,32,26.30
2017,09,04,12,33,26.40
2017,09,04,12,34,26.40
2017,09,04,12,35,26.50
2017,09,04,12,36,26.50
2017,09,04,12,37,26.50
2017,09,04,12,38,26.50
2017,09,04,12,39,26.60
2017,09,04,12,40,26.70
2017,09,04,12,41,26.70
2017,09,04,12,42,26.80
2017,09,04,12,43,26.80
2017,09,04,12,44,26.90
2017,09,04,12,45,26.90
2017,09,04,12,46,26.90
2017,09,04,12,47,26.90
2017,09,04,12,48,26.90
2017,09,04,12,49,26.90
2017,09,04,12,50,26.90
2017,09,04,12,51,26.90
2017,09,04,12,52,27.00
2017,09,04,12,53,27.00
2017,09,04,12,54,27.00
2017,09,04,12,55,27.10
2017,09,04,12,56,27.10
2017,09,04,12,57,27.20
2017,09,04,12,58,27.20
2017,09,04,12,59,27.20
2017,09,04,13,00,27.20
2017,09,04,13,01,27.20
2017,09,04,13,02,27.30
2017,09,04,13,03,27.30
2017,09,04,13,04,27.30
2017,09,04,13,05,27.30
2017,09,04,13,06,27.40
2017,09,04,13,07,27.40
2017,09,04,13,08,27.40
2017,09,04,13,09,27.50
2017,09,04,13,10,27.60
2017,09,04,13,11,27.60
2017,09,04,13,12,27.70
2017,09,04,13,13,27.70
2017,09,04,13,14,27.80
2017,09,04,13,15,27.80
2017,09,04,13,16,27.80
2017,09,04,13,17,27.80
2017,09,04,13,18,27.80
2017,09,04,13,19,27.90
2017,09,04,13,20,27.90
2017,09,04,13,21,28.00
2017,09,04,13,22,28.10
2017,09,04,13,23,28.20
2017,09,04,13,24,28.20
2017,09,04,13,25,28.30
2017,09,04,13,26,28.40
2017,09,04,13,27,28.40
2017,09,04,13,28,28.50
2017,09,04,13,29,28.50
2017,09,04,13,30,28.60
2017,09,04,13,31,28.70
2017,09,04,13,32,28.70
2017,09,04,13,33,28.80
2017,09,04,13,34,28.80
2017,09,04,13,35,28.80
2017,09,04,13,36,28.80
2017,09,04,13,37,28.90
2017,09,04,13,38,28.90
2017,09,04,13,39,29.00
2017,09,04,13,40,29.10
2017,09,04,13,41,29.10
2017,09,04,13,42,29.20
2017,09,04,13,43,29.30
2017,09,04,13,44,29.30
2017,09,04,13,45,29.30
2017,09,04,13,46,29.30
2017,09,04,13,47,29.30
2017,09,04,13,48,29.40
2017,09,04,13,49,29.50
2017,09,04,13,50,29.50
2017,09,04,13,51,29.60
2017,09,04,13,52,29.70
2017,09,04,13,53,29.70
2017,09,04,13,54,29.80
2017,09,04,13,55,29.80
2017,09,04,13,56,29.80
2017,09,04,13,57,29.80
2017,09,04,13,58,29.80
2017,09,04,13,59,29.80
2017,09,04,14,00,29.70
2017,09,04,14,01,29.70
2017,09,04,14,02,29.70
2017,09,04,14,03,29.80
2017,09,04,14,04,29.70
2017,09,04,14,05,29.70
2017,09,04,14,06,29.70
2017,09,04,14,07,29.70
2017,09,04,14,08,29.80
2017,09,04,14,09,29.80
2017,09,04,14,10,29.90
2017,09,04,14,11,29.90
2017,09,04,14,12,29.90
2017,09,04,14,13,29.90
2017,09,04,14,14,29.90
2017,09,04,14,15,30.00
2017,09,04,14,16,30.00
2017,09,04,14,17,30.00
2017,09,04,14,18,30.00
2017,09,04,14,19,30.10
2017,09,04,14,20,30.10
2017,09,04,14,21,30.10
2017,09,04,14,22,30.10
2017,09,04,14,23,30.20
2017,09,04,14,24,30.30
2017,09,04,14,25,30.30
2017,09,04,14,26,30.30
2017,09,04,14,27,30.40
2017,09,04,14,28,30.40
2017,09,04,14,29,30.40
2017,09,04,14,30,30.30
2017,09,04,14,31,30.30
2017,09,04,14,32,30.30
2017,09,04,14,33,30.30
2017,09,04,14,34,30.30
2017,09,04,14,35,30.20
2017,09,04,14,36,30.30
2017,09,04,14,37,30.30
2017,09,04,14,38,30.40
2017,09,04,14,39,30.50
2017,09,04,14,40,30.50
2017,09,04,14,41,30.60
2017,09,04,14,42,30.70
2017,09,04,14,43,30.70
2017,09,04,14,44,30.70
2017,09,04,14,45,30.60
2017,09,04,14,46,30.60
2017,09,04,14,47,30.50
2017,09,04,14,48,30.40
2017,09,04,14,49,30.40
2017,09,04,14,50,30.30
2017,09,04,14,51,30.30
2017,09,04,14,52,30.30
2017,09,04,14,53,30.30
2017,09,04,14,54,30.30
2017,09,04,14,55,30.30
2017,09,04,14,56,30.30
2017,09,04,14,57,30.30
2017,09,04,14,58,30.30
2017,09,04,14,59,30.30
2017,09,04,15,00,30.40
2017,09,04,15,01,30.40
2017,09,04,15,02,30.50
2017,09,04,15,03,30.60
2017,09,04,15,04,30.60
2017,09,04,15,05,30.70
2017,09,04,15,06,30.70
2017,09,04,15,07,30.80
2017,09,04,15,08,30.90
2017,09,04,15,09,30.90
2017,09,04,15,10,31.00
2017,09,04,15,11,31.00
2017,09,04,15,12,31.00
2017,09,04,15,13,31.00
2017,09,04,15,14,31.10
2017,09,04,15,15,31.20
2017,09,04,15,16,31.20
2017,09,04,15,17,31.20
2017,09,04,15,18,31.20
2017,09,04,15,19,31.20
2017,09,04,15,20,31.30
2017,09,04,15,21,31.40
2017,09,04,15,22,31.50
2017,09,04,15,23,31.50
2017,09,04,15,24,31.60
2017,09,04,15,25,31.60
2017,09,04,15,26,31.60
2017,09,04,15,27,31.60
2017,09,04,15,28,31.70
2017,09,04,15,29,31.70
2017,09,04,15,30,31.80
2017,09,04,15,31,31.80
2017,09,04,15,32,31.80
2017,09,04,15,33,31.90
2017,09,04,15,34,31.90
2017,09,04,15,35,31.90
2017,09,04,15,36,31.90
2017,09,04,15,37,31.80
2017,09,04,15,38,31.80
2017,09,04,15,39,31.80
2017,09,04,15,40,31.70
2017,09,04,15,41,31.70
2017,09,04,15,42,31.70
2017,09,04,15,43,31.70
2017,09,04,15,44,31.70
2017,09,04,15,45,31.70
2017,09,04,15,46,31.80
2017,09,04,15,47,31.80
2017,09,04,15,48,31.80
2017,09,04,15,49,31.80
2017,09,04,15,50,31.90
2017,09,04,15,51,31.90
2017,09,04,15,52,31.90
2017,09,04,15,53,31.90
2017,09,04,15,54,31.90
2017,09,04,15,55,32.00
2017,09,04,15,56,32.00
2017,09,04,15,57,32.00
2017,09,04,15,58,32.10
2017,09,04,15,59,32.20
2017,09,04,16,00,32.20
2017,09,04,16,01,32.30
2017,09,04,16,02,32.40
2017,09,04,16,03,32.40
2017,09,04,16,04,32.40
2017,09,04,16,05,32.40
2017,09,04,16,06,32.40
2017,09,04,16,07,32.40
2017,09,04,16,08,32.30
2017,09,04,16,09,32.30
2017,09,04,16,10,32.30
2017,09,04,16,11,32.30
2017,09,04,16,12,32.30
2017,09,04,16,13,32.20
2017,09,04,16,14,32.10
2017,09,04,16,15,32.10
2017,09,04,16,16,32.10
2017,09,04,16,17,32.10
2017,09,04,16,18,32.10
2017,09,04,16,19,32.10
2017,09,04,16,20,32.10
2017,09,04,16,21,32.00
2017,09,04,16,22,32.00
2017,09,04,16,23,31.90
2017,09,04,16,24,31.90
2017,09,04,16,25,32.00
2017,09,04,16,26,32.00
2017,09,04,16,27,31.90
2017,09,04,16,28,31.90
2017,09,04,16,29,31.80
2017,09,04,16,30,31.80
2017,09,04,16,31,31.70
2017,09,04,16,32,31.80
2017,09,04,16,33,31.80
2017,09,04,16,34,31.80
2017,09,04,16,35,31.80
2017,09,04,16,36,31.90
2017,09,04,16,37,32.00
2017,09,04,16,38,32.00
2017,09,04,16,39,32.00
2017,09,04,16,40,32.10
2017,09,04,16,41,32.10
2017,09,04,16,42,32.10
2017,09,04,16,43,32.20
2017,09,04,16,44,32.20
2017,09,04,16,45,32.10
2017,09,04,16,46,32.10
2017,09,04,16,47,32.20
2017,09,04,16,48,32.20
2017,09,04,16,49,32.20
2017,09,04,16,50,32.20
2017,09,04,16,51,32.30
2017,09,04,16,52,32.30
2017,09,04,16,53,32.30
2017,09,04,16,54,32.30
2017,09,04,16,55,32.20
2017,09,04,16,56,32.20
2017,09,04,16,57,32.20
2017,09,04,16,58,32.20
2017,09,04,16,59,32.20
2017,09,04,17,00,32.20
2017,09,04,17,01,32.20
2017,09,04,17,02,32.20
2017,09,04,17,03,32.30
2017,09,04,17,04,32.30
2017,09,04,17,05,32.30
2017,09,04,17,06,32.40
2017,09,04,17,07,32.50
2017,09,04,17,08,32.50
2017,09,04,17,09,32.50
2017,09,04,17,10,32.60
2017,09,04,17,11,32.60
2017,09,04,17,12,32.60
2017,09,04,17,13,32.70
2017,09,04,17,14,32.80
2017,09,04,17,15,32.80
2017,09,04,17,16,32.90
2017,09,04,17,17,32.90
2017,09,04,17,18,32.80
2017,09,04,17,19,32.80